Time,TemperatureF,DewpointF,PressureIn,WindDirection,WindDirectionDegrees,WindSpeedMPH,WindSpeedGustMPH,Humidity,HourlyPrecipIn,Conditions,Clouds,dailyrainin,SolarRadiationWatts/m^2,SoftwareType,DateUTC
2013-06-15 00:02:00,80.2,66.5,29.94,SSW,201,6.0,16.0,63,0.00,,,0.00,0,Wunderground v.1.15,2013-06-15 05:02:00,
2013-06-15 00:08:00,80.0,66.7,29.94,SSW,192,5.0,16.0,64,0.00,,,0.00,0,Wunderground v.1.15,2013-06-15 05:08:00,
2013-06-15 00:14:00,79.7,66.4,29.95,SSW,204,5.0,5.0,64,0.00,,,0.00,0,Wunderground v.1.15,2013-06-15 05:14:00,
2013-06-15 00:20:00,79.4,66.2,29.95,South,187,5.0,16.0,64,0.00,,,0.00,0,Wunderground v.1.15,2013-06-15 05:20:00,
2013-06-15 00:26:00,79.3,66.1,29.95,SSW,199,5.0,6.0,64,0.00,,,0.00,0,Wunderground v.1.15,2013-06-15 05:26:00,
2013-06-15 00:32:00,79.3,66.5,29.95,South,189,5.0,16.0,65,0.00,,,0.00,0,Wunderground v.1.15,2013-06-15 05:32:00,
2013-06-15 00:38:00,79.2,66.4,29.95,SSW,205,5.0,16.0,65,0.00,,,0.00,0,Wunderground v.1.15,2013-06-15 05:38:00,
2013-06-15 00:44:00,79.0,66.2,29.95,South,170,5.0,5.0,65,0.00,,,0.00,0,Wunderground v.1.15,2013-06-15 05:44:00,
2013-06-15 00:50:00,78.8,66.0,29.95,SSW,197,4.0,16.0,65,0.00,,,0.00,0,Wunderground v.1.15,2013-06-15 05:50:00,
2013-06-15 00:56:00,78.7,66.4,29.94,South,188,4.0,16.0,66,0.00,,,0.00,0,Wunderground v.1.15,2013-06-15 05:56:00,
2013-06-15 01:02:00,78.4,66.1,29.94,SSW,192,3.0,16.0,66,0.00,,,0.00,0,Wunderground v.1.15,2013-06-15 06:02:00,
2013-06-15 01:10:00,78.0,66.2,29.94,SSW,206,3.0,5.0,67,0.00,,,0.00,0,Wunderground v.1.15,2013-06-15 06:10:00,
2013-06-15 01:16:00,77.7,66.3,29.94,SSW,197,3.0,4.0,68,0.00,,,0.00,0,Wunderground v.1.15,2013-06-15 06:16:00,
2013-06-15 01:22:00,77.5,66.5,29.94,South,186,4.0,5.0,69,0.00,,,0.00,0,Wunderground v.1.15,2013-06-15 06:22:00,
2013-06-15 01:28:00,77.3,66.3,29.93,SSW,199,4.0,4.0,69,0.00,,,0.00,0,Wunderground v.1.15,2013-06-15 06:28:00,
2013-06-15 01:34:00,77.0,66.0,29.93,SSW,197,3.0,4.0,69,0.00,,,0.00,0,Wunderground v.1.15,2013-06-15 06:34:00,
2013-06-15 01:40:00,76.7,66.2,29.93,SSW,200,3.0,4.0,70,0.00,,,0.00,0,Wunderground v.1.15,2013-06-15 06:40:00,
2013-06-15 01:46:00,76.4,65.9,29.93,SSW,202,4.0,8.0,70,0.00,,,0.00,0,Wunderground v.1.15,2013-06-15 06:46:00,
2013-06-15 01:52:00,76.0,65.9,29.94,SSW,202,4.0,8.0,71,0.00,,,0.00,0,Wunderground v.1.15,2013-06-15 06:52:00,
2013-06-15 01:58:00,75.7,66.0,29.94,SSW,201,4.0,8.0,72,0.00,,,0.00,0,Wunderground v.1.15,2013-06-15 06:58:00,
2013-06-15 02:04:00,75.4,65.7,29.93,SSW,210,4.0,4.0,72,0.00,,,0.00,0,Wunderground v.1.15,2013-06-15 07:04:00,
2013-06-15 02:10:00,75.3,65.6,29.94,SSW,210,4.0,8.0,72,0.00,,,0.00,0,Wunderground v.1.15,2013-06-15 07:10:00,
2013-06-15 02:16:00,75.3,66.0,29.93,SSW,201,5.0,8.0,73,0.00,,,0.00,0,Wunderground v.1.15,2013-06-15 07:16:00,
2013-06-15 02:22:00,75.5,65.8,29.94,SSW,199,5.0,8.0,72,0.00,,,0.00,0,Wunderground v.1.15,2013-06-15 07:22:00,
2013-06-15 02:28:00,75.8,66.1,29.94,SSW,208,6.0,8.0,72,0.00,,,0.00,0,Wunderground v.1.15,2013-06-15 07:28:00,
2013-06-15 02:34:00,76.1,66.0,29.94,SSW,200,5.0,5.0,71,0.00,,,0.00,0,Wunderground v.1.15,2013-06-15 07:34:00,
2013-06-15 02:40:00,76.4,66.3,29.94,SSW,212,5.0,8.0,71,0.00,,,0.00,0,Wunderground v.1.15,2013-06-15 07:40:00,
2013-06-15 02:46:00,76.5,66.0,29.94,SSW,213,5.0,8.0,70,0.00,,,0.00,0,Wunderground v.1.15,2013-06-15 07:46:00,
2013-06-15 02:52:00,76.6,66.1,29.94,SSW,205,5.0,8.0,70,0.00,,,0.00,0,Wunderground v.1.15,2013-06-15 07:52:00,
2013-06-15 02:58:00,76.6,66.1,29.94,SSW,193,4.0,8.0,70,0.00,,,0.00,0,Wunderground v.1.15,2013-06-15 07:58:00,
2013-06-15 03:04:00,76.6,66.1,29.94,SSW,195,4.0,4.0,70,0.00,,,0.00,0,Wunderground v.1.15,2013-06-15 08:04:00,
2013-06-15 03:10:00,76.5,66.0,29.94,SSW,195,4.0,8.0,70,0.00,,,0.00,0,Wunderground v.1.15,2013-06-15 08:10:00,
2013-06-15 03:16:00,76.3,66.2,29.94,SSW,205,3.0,8.0,71,0.00,,,0.00,0,Wunderground v.1.15,2013-06-15 08:16:00,
2013-06-15 03:22:00,76.2,66.1,29.94,South,191,3.0,8.0,71,0.00,,,0.00,0,Wunderground v.1.15,2013-06-15 08:22:00,
2013-06-15 03:28:00,76.1,66.0,29.94,South,191,3.0,8.0,71,0.00,,,0.00,0,Wunderground v.1.15,2013-06-15 08:28:00,
2013-06-15 03:34:00,76.0,65.9,29.94,SSW,196,3.0,3.0,71,0.00,,,0.00,0,Wunderground v.1.15,2013-06-15 08:34:00,
2013-06-15 03:40:00,75.9,65.8,29.94,SSW,196,2.0,8.0,71,0.00,,,0.00,0,Wunderground v.1.15,2013-06-15 08:40:00,
2013-06-15 03:46:00,75.7,66.0,29.94,SSW,196,2.0,8.0,72,0.00,,,0.00,0,Wunderground v.1.15,2013-06-15 08:46:00,
2013-06-15 03:52:00,75.4,65.7,29.94,SSW,196,1.0,8.0,72,0.00,,,0.00,0,Wunderground v.1.15,2013-06-15 08:52:00,
2013-06-15 03:58:00,75.2,65.9,29.94,SSW,196,2.0,8.0,73,0.00,,,0.00,0,Wunderground v.1.15,2013-06-15 08:58:00,
2013-06-15 04:04:00,74.9,65.7,29.94,SSW,196,2.0,8.0,73,0.00,,,0.00,0,Wunderground v.1.15,2013-06-15 09:04:00,
2013-06-15 04:10:00,74.8,66.0,29.94,SSW,196,2.0,8.0,74,0.00,,,0.00,0,Wunderground v.1.15,2013-06-15 09:10:00,
2013-06-15 04:16:00,74.5,65.7,29.94,SSW,199,2.0,8.0,74,0.00,,,0.00,0,Wunderground v.1.15,2013-06-15 09:16:00,
2013-06-15 04:22:00,74.4,66.0,29.95,SSW,202,3.0,8.0,75,0.00,,,0.00,0,Wunderground v.1.15,2013-06-15 09:22:00,
2013-06-15 04:28:00,74.3,65.9,29.95,SSW,202,3.0,8.0,75,0.00,,,0.00,0,Wunderground v.1.15,2013-06-15 09:28:00,
2013-06-15 04:34:00,74.3,65.9,29.95,SSW,202,3.0,8.0,75,0.00,,,0.00,0,Wunderground v.1.15,2013-06-15 09:34:00,
2013-06-15 04:40:00,74.3,65.9,29.96,South,189,4.0,8.0,75,0.00,,,0.00,0,Wunderground v.1.15,2013-06-15 09:40:00,
2013-06-15 04:46:00,74.4,66.0,29.96,South,189,3.0,8.0,75,0.00,,,0.00,0,Wunderground v.1.15,2013-06-15 09:46:00,
2013-06-15 04:52:00,74.3,65.9,29.95,South,187,3.0,8.0,75,0.00,,,0.00,0,Wunderground v.1.15,2013-06-15 09:52:00,
2013-06-15 04:58:00,74.3,65.9,29.95,South,187,3.0,8.0,75,0.00,,,0.00,0,Wunderground v.1.15,2013-06-15 09:58:00,
2013-06-15 05:04:00,74.2,66.1,29.95,South,187,3.0,8.0,76,0.00,,,0.00,0,Wunderground v.1.15,2013-06-15 10:04:00,
2013-06-15 05:10:00,74.0,66.0,29.95,South,188,3.0,8.0,76,0.00,,,0.00,0,Wunderground v.1.15,2013-06-15 10:10:00,
2013-06-15 05:16:00,73.9,65.9,29.95,South,187,4.0,8.0,76,0.00,,,0.00,0,Wunderground v.1.15,2013-06-15 10:16:00,
2013-06-15 05:22:00,73.8,65.8,29.95,SSW,192,4.0,8.0,76,0.00,,,0.00,0,Wunderground v.1.15,2013-06-15 10:22:00,
2013-06-15 05:28:00,73.8,65.8,29.95,SSW,194,4.0,8.0,76,0.00,,,0.00,0,Wunderground v.1.15,2013-06-15 10:28:00,
2013-06-15 05:34:00,73.8,65.8,29.96,SSW,193,3.0,3.0,76,0.00,,,0.00,0,Wunderground v.1.15,2013-06-15 10:34:00,
2013-06-15 05:40:00,73.8,65.4,29.95,South,190,3.0,8.0,75,0.00,,,0.00,0,Wunderground v.1.15,2013-06-15 10:40:00,
2013-06-15 05:46:00,73.8,65.8,29.96,South,184,3.0,4.0,76,0.00,,,0.00,0,Wunderground v.1.15,2013-06-15 10:46:00,
2013-06-15 05:52:00,73.7,65.7,29.96,SSE,167,3.0,8.0,76,0.00,,,0.00,0,Wunderground v.1.15,2013-06-15 10:52:00,
2013-06-15 05:58:00,73.6,65.6,29.97,South,172,4.0,8.0,76,0.00,,,0.00,0,Wunderground v.1.15,2013-06-15 10:58:00,
2013-06-15 06:04:00,73.4,65.4,29.97,South,175,3.0,8.0,76,0.00,,,0.00,0,Wunderground v.1.15,2013-06-15 11:04:00,
2013-06-15 06:10:00,73.3,65.3,29.97,South,174,4.0,8.0,76,0.00,,,0.00,0,Wunderground v.1.15,2013-06-15 11:10:00,
2013-06-15 06:16:00,73.2,65.2,29.97,South,172,3.0,8.0,76,0.00,,,0.00,7,Wunderground v.1.15,2013-06-15 11:16:00,
2013-06-15 06:22:00,73.1,65.1,29.97,South,172,3.0,8.0,76,0.00,,,0.00,14,Wunderground v.1.15,2013-06-15 11:22:00,
2013-06-15 06:28:00,73.0,65.4,29.97,South,172,3.0,8.0,77,0.00,,,0.00,16,Wunderground v.1.15,2013-06-15 11:28:00,
2013-06-15 06:34:00,73.0,65.0,29.98,South,172,3.0,8.0,76,0.00,,,0.00,16,Wunderground v.1.15,2013-06-15 11:34:00,
2013-06-15 06:40:00,73.0,65.4,29.98,South,172,3.0,8.0,77,0.00,,,0.00,23,Wunderground v.1.15,2013-06-15 11:40:00,
2013-06-15 06:46:00,73.0,65.4,29.98,South,172,3.0,4.0,77,0.00,,,0.00,33,Wunderground v.1.15,2013-06-15 11:46:00,
2013-06-15 06:52:00,73.1,65.5,29.98,South,172,3.0,8.0,77,0.00,,,0.00,47,Wunderground v.1.15,2013-06-15 11:52:00,
2013-06-15 06:58:00,73.3,65.7,29.98,South,172,3.0,8.0,77,0.00,,,0.00,44,Wunderground v.1.15,2013-06-15 11:58:00,
2013-06-15 07:04:00,73.5,65.5,29.98,South,172,3.0,8.0,76,0.00,,,0.00,26,Wunderground v.1.15,2013-06-15 12:04:00,
2013-06-15 07:10:00,73.6,65.6,29.98,South,172,3.0,8.0,76,0.00,,,0.00,23,Wunderground v.1.15,2013-06-15 12:10:00,
2013-06-15 07:16:00,73.6,65.6,29.98,South,172,3.0,8.0,76,0.00,,,0.00,23,Wunderground v.1.15,2013-06-15 12:16:00,
2013-06-15 07:22:00,73.6,65.9,29.98,South,172,2.0,8.0,77,0.00,,,0.00,33,Wunderground v.1.15,2013-06-15 12:22:00,
2013-06-15 07:28:00,73.5,66.2,29.98,South,172,2.0,8.0,78,0.00,,,0.00,63,Wunderground v.1.15,2013-06-15 12:28:00,
2013-06-15 07:34:00,73.6,66.3,29.98,South,172,2.0,2.0,78,0.00,,,0.00,90,Wunderground v.1.15,2013-06-15 12:34:00,
2013-06-15 07:40:00,74.0,66.3,29.98,South,182,2.0,8.0,77,0.00,,,0.00,88,Wunderground v.1.15,2013-06-15 12:40:00,
2013-06-15 07:46:00,74.3,66.2,29.98,South,187,2.0,3.0,76,0.00,,,0.00,60,Wunderground v.1.15,2013-06-15 12:46:00,
2013-06-15 07:52:00,74.7,66.2,29.98,South,187,2.0,8.0,75,0.00,,,0.00,88,Wunderground v.1.15,2013-06-15 12:52:00,
2013-06-15 07:58:00,75.0,66.5,29.98,South,186,2.0,8.0,75,0.00,,,0.00,114,Wunderground v.1.15,2013-06-15 12:58:00,
2013-06-15 08:04:00,75.4,66.9,29.98,South,187,2.0,2.0,75,0.00,,,0.00,118,Wunderground v.1.15,2013-06-15 13:04:00,
2013-06-15 08:10:00,75.8,66.9,29.99,South,186,2.0,8.0,74,0.00,,,0.00,100,Wunderground v.1.15,2013-06-15 13:10:00,
2013-06-15 08:16:00,76.1,66.4,29.98,South,186,2.0,8.0,72,0.00,,,0.00,97,Wunderground v.1.15,2013-06-15 13:16:00,
2013-06-15 08:22:00,76.3,66.2,29.98,South,179,3.0,8.0,71,0.00,,,0.00,105,Wunderground v.1.15,2013-06-15 13:22:00,
2013-06-15 08:28:00,76.5,66.8,29.98,South,179,3.0,8.0,72,0.00,,,0.00,97,Wunderground v.1.15,2013-06-15 13:28:00,
2013-06-15 08:34:00,76.5,66.8,29.99,South,187,3.0,8.0,72,0.00,,,0.00,90,Wunderground v.1.15,2013-06-15 13:34:00,
2013-06-15 08:40:00,76.6,66.5,29.99,SSW,193,3.0,8.0,71,0.00,,,0.00,91,Wunderground v.1.15,2013-06-15 13:40:00,
2013-06-15 08:46:00,76.6,66.9,29.99,SSW,209,3.0,8.0,72,0.00,,,0.00,93,Wunderground v.1.15,2013-06-15 13:46:00,
2013-06-15 08:52:00,76.6,66.9,29.99,SSW,209,3.0,8.0,72,0.00,,,0.00,107,Wunderground v.1.15,2013-06-15 13:52:00,
2013-06-15 08:58:00,76.8,67.1,29.99,SSW,204,3.0,8.0,72,0.00,,,0.00,114,Wunderground v.1.15,2013-06-15 13:58:00,
2013-06-15 09:04:00,76.9,67.2,29.99,South,189,2.0,8.0,72,0.00,,,0.00,144,Wunderground v.1.15,2013-06-15 14:04:00,
2013-06-15 09:10:00,77.2,67.1,29.99,South,188,3.0,8.0,71,0.00,,,0.00,176,Wunderground v.1.15,2013-06-15 14:10:00,
2013-06-15 09:16:00,77.6,67.0,29.99,SSE,168,3.0,8.0,70,0.00,,,0.00,197,Wunderground v.1.15,2013-06-15 14:16:00,
2013-06-15 09:22:00,78.0,67.4,29.99,South,175,4.0,8.0,70,0.00,,,0.00,230,Wunderground v.1.15,2013-06-15 14:22:00,
2013-06-15 09:28:00,78.6,67.2,29.99,South,190,4.0,8.0,68,0.00,,,0.00,260,Wunderground v.1.15,2013-06-15 14:28:00,
2013-06-15 09:34:00,79.1,67.2,29.99,South,182,4.0,4.0,67,0.00,,,0.00,246,Wunderground v.1.15,2013-06-15 14:34:00,
2013-06-15 09:40:00,79.7,67.3,29.99,South,190,4.0,8.0,66,0.00,,,0.00,272,Wunderground v.1.15,2013-06-15 14:40:00,
2013-06-15 09:46:00,80.1,67.3,29.99,SSE,164,5.0,8.0,65,0.00,,,0.00,302,Wunderground v.1.15,2013-06-15 14:46:00,
2013-06-15 09:52:00,80.6,66.8,29.99,SE,141,5.0,8.0,63,0.00,,,0.00,274,Wunderground v.1.15,2013-06-15 14:52:00,
2013-06-15 09:58:00,80.9,66.7,29.99,South,174,5.0,8.0,62,0.00,,,0.00,316,Wunderground v.1.15,2013-06-15 14:58:00,
2013-06-15 10:04:00,81.3,67.0,29.99,SSE,156,5.0,9.0,62,0.00,,,0.00,322,Wunderground v.1.15,2013-06-15 15:04:00,
2013-06-15 10:10:00,81.7,66.9,29.99,SSE,165,5.0,9.0,61,0.00,,,0.00,257,Wunderground v.1.15,2013-06-15 15:10:00,
2013-06-15 10:16:00,81.9,66.6,29.99,South,186,4.0,8.0,60,0.00,,,0.00,234,Wunderground v.1.15,2013-06-15 15:16:00,
2013-06-15 10:22:00,82.0,66.7,29.99,SSE,164,5.0,8.0,60,0.00,,,0.00,230,Wunderground v.1.15,2013-06-15 15:22:00,
2013-06-15 10:28:00,81.9,66.2,29.99,South,171,5.0,8.0,59,0.00,,,0.00,234,Wunderground v.1.15,2013-06-15 15:28:00,
2013-06-15 10:34:00,81.8,66.1,29.99,South,178,5.0,5.0,59,0.00,,,0.00,237,Wunderground v.1.15,2013-06-15 15:34:00,
2013-06-15 10:40:00,81.9,66.6,29.99,South,171,5.0,8.0,60,0.00,,,0.00,287,Wunderground v.1.15,2013-06-15 15:40:00,
2013-06-15 10:46:00,82.1,65.9,29.99,South,180,6.0,8.0,58,0.00,,,0.00,278,Wunderground v.1.15,2013-06-15 15:46:00,
2013-06-15 10:52:00,82.4,65.6,29.99,SSE,166,6.0,8.0,57,0.00,,,0.00,325,Wunderground v.1.15,2013-06-15 15:52:00,
2013-06-15 10:58:00,82.7,65.9,29.99,South,170,7.0,9.0,57,0.00,,,0.00,336,Wunderground v.1.15,2013-06-15 15:58:00,
2013-06-15 11:04:00,83.2,65.4,29.99,South,175,7.0,8.0,55,0.00,,,0.00,339,Wunderground v.1.15,2013-06-15 16:04:00,
2013-06-15 11:10:00,83.5,65.1,29.99,SSE,165,6.0,9.0,54,0.00,,,0.00,371,Wunderground v.1.15,2013-06-15 16:10:00,
2013-06-15 11:16:00,83.9,64.9,29.99,SSE,164,6.0,8.0,53,0.00,,,0.00,399,Wunderground v.1.15,2013-06-15 16:16:00,
2013-06-15 11:22:00,84.4,64.9,29.99,South,172,7.0,8.0,52,0.00,,,0.00,374,Wunderground v.1.15,2013-06-15 16:22:00,
2013-06-15 11:28:00,84.6,65.0,29.99,SSW,199,7.0,8.0,52,0.00,,,0.00,366,Wunderground v.1.15,2013-06-15 16:28:00,
2013-06-15 11:34:00,84.8,65.2,29.99,South,191,6.0,6.0,52,0.00,,,0.00,415,Wunderground v.1.15,2013-06-15 16:34:00,
2013-06-15 11:40:00,85.1,64.9,29.99,SSE,152,6.0,11.0,51,0.00,,,0.00,373,Wunderground v.1.15,2013-06-15 16:40:00,
2013-06-15 11:46:00,85.2,65.0,29.99,South,173,7.0,8.0,51,0.00,,,0.00,475,Wunderground v.1.15,2013-06-15 16:46:00,
2013-06-15 11:52:00,85.7,66.0,29.99,SSW,209,5.0,8.0,52,0.00,,,0.00,519,Wunderground v.1.15,2013-06-15 16:52:00,
2013-06-15 11:58:00,86.2,66.5,29.99,SSW,193,6.0,9.0,52,0.00,,,0.00,445,Wunderground v.1.15,2013-06-15 16:58:00,
2013-06-15 12:04:00,86.2,65.4,29.99,South,169,5.0,5.0,50,0.00,,,0.00,408,Wunderground v.1.15,2013-06-15 17:04:00,
2013-06-15 12:10:00,86.4,65.6,29.98,SSW,208,4.0,8.0,50,0.00,,,0.00,434,Wunderground v.1.15,2013-06-15 17:10:00,
2013-06-15 12:16:00,86.5,66.2,29.98,SSW,197,4.0,6.0,51,0.00,,,0.00,454,Wunderground v.1.15,2013-06-15 17:16:00,
2013-06-15 12:22:00,86.5,65.7,29.97,SSW,198,4.0,8.0,50,0.00,,,0.00,420,Wunderground v.1.15,2013-06-15 17:22:00,
2013-06-15 12:28:00,86.4,66.1,29.97,SW,231,5.0,10.0,51,0.00,,,0.00,352,Wunderground v.1.15,2013-06-15 17:28:00,
2013-06-15 12:34:00,86.1,64.7,29.97,SSW,200,6.0,6.0,49,0.00,,,0.00,376,Wunderground v.1.15,2013-06-15 17:34:00,
2013-06-15 12:40:00,86.0,65.2,29.97,SW,229,6.0,8.0,50,0.00,,,0.00,411,Wunderground v.1.15,2013-06-15 17:40:00,
2013-06-15 12:46:00,86.1,65.9,29.96,SSW,201,5.0,6.0,51,0.00,,,0.00,462,Wunderground v.1.15,2013-06-15 17:46:00,
2013-06-15 12:52:00,86.6,67.4,29.97,West,261,6.0,8.0,53,0.00,,,0.00,814,Wunderground v.1.15,2013-06-15 17:52:00,
2013-06-15 12:58:00,87.6,68.4,29.96,WSW,241,4.0,8.0,53,0.00,,,0.00,831,Wunderground v.1.15,2013-06-15 17:58:00,
2013-06-15 13:04:00,88.4,69.1,29.96,WSW,246,4.0,4.0,53,0.00,,,0.00,1037,Wunderground v.1.15,2013-06-15 18:04:00,
2013-06-15 13:10:00,89.1,65.6,29.95,SW,220,5.0,11.0,46,0.00,,,0.00,1095,Wunderground v.1.15,2013-06-15 18:10:00,
2013-06-15 13:16:00,88.8,65.4,29.96,West,272,6.0,8.0,46,0.00,,,0.00,445,Wunderground v.1.15,2013-06-15 18:16:00,
2013-06-15 13:22:00,88.3,67.3,29.96,SSW,199,6.0,8.0,50,0.00,,,0.00,480,Wunderground v.1.15,2013-06-15 18:22:00,
2013-06-15 13:28:00,88.3,65.5,29.95,West,264,6.0,8.0,47,0.00,,,0.00,636,Wunderground v.1.15,2013-06-15 18:28:00,
2013-06-15 13:34:00,88.2,66.0,29.95,SSW,204,5.0,8.0,48,0.00,,,0.00,446,Wunderground v.1.15,2013-06-15 18:34:00,
2013-06-15 13:40:00,87.9,68.1,29.95,SW,230,6.0,8.0,52,0.00,,,0.00,369,Wunderground v.1.15,2013-06-15 18:40:00,
2013-06-15 13:46:00,88.3,66.1,29.95,SSW,212,6.0,8.0,48,0.00,,,0.00,531,Wunderground v.1.15,2013-06-15 18:46:00,
2013-06-15 13:52:00,88.9,67.9,29.94,SW,224,7.0,9.0,50,0.00,,,0.00,805,Wunderground v.1.15,2013-06-15 18:52:00,
2013-06-15 13:58:00,90.8,67.8,29.94,SW,221,8.0,8.0,47,0.00,,,0.00,1364,Wunderground v.1.15,2013-06-15 18:58:00,
2013-06-15 14:04:00,90.8,65.9,29.94,WSW,243,8.0,13.0,44,0.00,,,0.00,969,Wunderground v.1.15,2013-06-15 19:04:00,
2013-06-15 14:10:00,90.5,66.9,29.94,WSW,241,9.0,13.0,46,0.00,,,0.00,1011,Wunderground v.1.15,2013-06-15 19:10:00,
2013-06-15 14:16:00,90.6,67.6,29.95,SSW,210,8.0,12.0,47,0.00,,,0.00,559,Wunderground v.1.15,2013-06-15 19:16:00,
2013-06-15 14:22:00,90.6,67.6,29.94,WSW,244,9.0,12.0,47,0.00,,,0.00,1067,Wunderground v.1.15,2013-06-15 19:22:00,
2013-06-15 14:28:00,90.5,66.9,29.94,SSW,198,9.0,10.0,46,0.00,,,0.00,438,Wunderground v.1.15,2013-06-15 19:28:00,
2013-06-15 14:34:00,90.1,67.2,29.94,SSW,197,9.0,9.0,47,0.00,,,0.00,515,Wunderground v.1.15,2013-06-15 19:34:00,
2013-06-15 14:40:00,89.4,67.1,29.94,WSW,256,10.0,13.0,48,0.00,,,0.00,439,Wunderground v.1.15,2013-06-15 19:40:00,
2013-06-15 14:46:00,89.9,68.2,29.93,SSW,206,8.0,17.0,49,0.00,,,0.00,1069,Wunderground v.1.15,2013-06-15 19:46:00,
2013-06-15 14:52:00,90.4,66.8,29.93,SSW,210,8.0,17.0,46,0.00,,,0.00,420,Wunderground v.1.15,2013-06-15 19:52:00,
2013-06-15 14:58:00,89.4,65.9,29.94,SW,214,9.0,14.0,46,0.00,,,0.00,408,Wunderground v.1.15,2013-06-15 19:58:00,
2013-06-15 15:04:00,89.7,68.0,29.94,SW,235,10.0,11.0,49,0.00,,,0.00,1053,Wunderground v.1.15,2013-06-15 20:04:00,
2013-06-15 15:10:00,90.7,66.4,29.93,South,179,9.0,13.0,45,0.00,,,0.00,1093,Wunderground v.1.15,2013-06-15 20:10:00,
2013-06-15 15:16:00,90.4,67.4,29.93,South,179,11.0,18.0,47,0.00,,,0.00,366,Wunderground v.1.15,2013-06-15 20:16:00,
2013-06-15 15:22:00,90.5,68.7,29.93,SE,139,12.0,18.0,49,0.00,,,0.00,1048,Wunderground v.1.15,2013-06-15 20:22:00,
2013-06-15 15:28:00,90.2,65.3,29.93,SSW,212,11.0,20.0,44,0.00,,,0.00,211,Wunderground v.1.15,2013-06-15 20:28:00,
2013-06-15 15:34:00,90.1,68.4,29.93,SSW,193,12.0,12.0,49,0.00,,,0.00,1044,Wunderground v.1.15,2013-06-15 20:34:00,
2013-06-15 15:40:00,89.8,65.6,29.93,South,191,12.0,13.0,45,0.00,,,0.00,318,Wunderground v.1.15,2013-06-15 20:40:00,
2013-06-15 15:46:00,88.6,67.0,29.94,SSE,150,13.0,19.0,49,0.00,,,0.00,359,Wunderground v.1.15,2013-06-15 20:46:00,
2013-06-15 15:52:00,85.5,68.0,29.94,SSE,167,19.0,27.0,56,0.00,,,0.00,269,Wunderground v.1.15,2013-06-15 20:52:00,
2013-06-15 15:58:00,83.4,68.1,29.94,SSE,162,19.0,27.0,60,0.00,,,0.00,225,Wunderground v.1.15,2013-06-15 20:58:00,
2013-06-15 16:04:00,82.1,65.9,29.94,SSE,164,16.0,18.0,58,0.00,,,0.00,272,Wunderground v.1.15,2013-06-15 21:04:00,
2013-06-15 16:10:00,82.9,67.1,29.94,SSE,161,15.0,22.0,59,0.00,,,0.00,919,Wunderground v.1.15,2013-06-15 21:10:00,
2013-06-15 16:16:00,84.7,66.2,29.93,SSE,158,14.0,18.0,54,0.00,,,0.00,891,Wunderground v.1.15,2013-06-15 21:16:00,
2013-06-15 16:22:00,85.3,66.8,29.93,SSW,195,15.0,18.0,54,0.00,,,0.00,765,Wunderground v.1.15,2013-06-15 21:22:00,
2013-06-15 16:28:00,85.4,65.2,29.93,South,175,14.0,15.0,51,0.00,,,0.00,731,Wunderground v.1.15,2013-06-15 21:28:00,
2013-06-15 16:34:00,85.0,66.5,29.93,SSE,167,14.0,14.0,54,0.00,,,0.00,738,Wunderground v.1.15,2013-06-15 21:34:00,
2013-06-15 16:40:00,84.4,65.9,29.92,SSE,162,13.0,14.0,54,0.00,,,0.00,719,Wunderground v.1.15,2013-06-15 21:40:00,
2013-06-15 16:46:00,84.5,67.1,29.92,South,187,12.0,13.0,56,0.00,,,0.00,606,Wunderground v.1.15,2013-06-15 21:46:00,
2013-06-15 16:52:00,85.2,66.1,29.92,SSE,152,11.0,13.0,53,0.00,,,0.00,664,Wunderground v.1.15,2013-06-15 21:52:00,
2013-06-15 16:58:00,85.7,65.5,29.92,South,180,11.0,11.0,51,0.00,,,0.00,534,Wunderground v.1.15,2013-06-15 21:58:00,
2013-06-15 17:04:00,85.6,66.5,29.92,South,182,9.0,9.0,53,0.00,,,0.00,671,Wunderground v.1.15,2013-06-15 22:04:00,
2013-06-15 17:10:00,86.2,65.9,29.91,SSE,164,9.0,9.0,51,0.00,,,0.00,654,Wunderground v.1.15,2013-06-15 22:10:00,
2013-06-15 17:16:00,86.6,65.2,29.91,SSE,156,11.0,18.0,49,0.00,,,0.00,587,Wunderground v.1.15,2013-06-15 22:16:00,
2013-06-15 17:22:00,86.5,65.7,29.91,SSE,166,12.0,18.0,50,0.00,,,0.00,506,Wunderground v.1.15,2013-06-15 22:22:00,
2013-06-15 17:27:00,86.3,66.0,29.91,SSE,167,13.0,13.0,51,0.00,,,0.00,570,Wunderground v.1.15,2013-06-15 22:27:00,
2013-06-15 17:33:00,86.2,65.9,29.91,South,170,12.0,13.0,51,0.00,,,0.00,571,Wunderground v.1.15,2013-06-15 22:33:00,
2013-06-15 17:39:00,86.2,66.5,29.91,SSE,150,13.0,14.0,52,0.00,,,0.00,564,Wunderground v.1.15,2013-06-15 22:39:00,
2013-06-15 17:45:00,86.2,67.1,29.90,SSE,154,13.0,15.0,53,0.00,,,0.00,580,Wunderground v.1.15,2013-06-15 22:45:00,
2013-06-15 17:51:00,86.3,67.7,29.90,SSE,168,12.0,18.0,54,0.00,,,0.00,557,Wunderground v.1.15,2013-06-15 22:51:00,
2013-06-15 17:57:00,86.5,66.8,29.90,South,189,13.0,15.0,52,0.00,,,0.00,487,Wunderground v.1.15,2013-06-15 22:57:00,
2013-06-15 18:03:00,86.3,66.0,29.90,South,175,12.0,13.0,51,0.00,,,0.00,339,Wunderground v.1.15,2013-06-15 23:03:00,
2013-06-15 18:10:00,85.9,66.2,29.89,South,179,12.0,15.0,52,0.00,,,0.00,490,Wunderground v.1.15,2013-06-15 23:10:00,
2013-06-15 18:16:00,86.0,65.8,29.89,SSE,151,13.0,16.0,51,0.00,,,0.00,452,Wunderground v.1.15,2013-06-15 23:16:00,
2013-06-15 18:22:00,85.9,65.7,29.89,SSE,167,13.0,16.0,51,0.00,,,0.00,385,Wunderground v.1.15,2013-06-15 23:22:00,
2013-06-15 18:28:00,85.8,66.7,29.89,SSE,162,12.0,15.0,53,0.00,,,0.00,397,Wunderground v.1.15,2013-06-15 23:28:00,
2013-06-15 18:34:00,85.8,67.2,29.89,South,188,12.0,12.0,54,0.00,,,0.00,364,Wunderground v.1.15,2013-06-15 23:34:00,
2013-06-15 18:40:00,85.5,66.4,29.88,SSE,156,12.0,14.0,53,0.00,,,0.00,334,Wunderground v.1.15,2013-06-15 23:40:00,
2013-06-15 18:46:00,85.4,66.3,29.88,South,170,12.0,18.0,53,0.00,,,0.00,330,Wunderground v.1.15,2013-06-15 23:46:00,
2013-06-15 18:52:00,85.4,66.3,29.88,SSE,160,12.0,18.0,53,0.00,,,0.00,313,Wunderground v.1.15,2013-06-15 23:52:00,
2013-06-15 18:58:00,85.3,66.8,29.88,South,169,11.0,12.0,54,0.00,,,0.00,294,Wunderground v.1.15,2013-06-15 23:58:00,
2013-06-15 19:04:00,85.3,66.2,29.88,SSE,162,10.0,14.0,53,0.00,,,0.00,274,Wunderground v.1.15,2013-06-16 00:04:00,
2013-06-15 19:10:00,85.3,65.7,29.88,South,171,10.0,14.0,52,0.00,,,0.00,257,Wunderground v.1.15,2013-06-16 00:10:00,
2013-06-15 19:16:00,85.1,65.5,29.88,SSE,161,10.0,14.0,52,0.00,,,0.00,237,Wunderground v.1.15,2013-06-16 00:16:00,
2013-06-15 19:22:00,84.9,65.3,29.88,SSE,164,11.0,14.0,52,0.00,,,0.00,216,Wunderground v.1.15,2013-06-16 00:22:00,
2013-06-15 19:28:00,84.8,65.2,29.88,SSE,152,11.0,11.0,52,0.00,,,0.00,190,Wunderground v.1.15,2013-06-16 00:28:00,
2013-06-15 19:34:00,84.5,65.5,29.88,South,169,10.0,10.0,53,0.00,,,0.00,165,Wunderground v.1.15,2013-06-16 00:34:00,
2013-06-15 19:40:00,84.2,65.8,29.88,SSE,158,10.0,11.0,54,0.00,,,0.00,142,Wunderground v.1.15,2013-06-16 00:40:00,
2013-06-15 19:46:00,83.8,65.4,29.89,South,180,10.0,14.0,54,0.00,,,0.00,121,Wunderground v.1.15,2013-06-16 00:46:00,
2013-06-15 19:51:00,83.4,65.5,29.89,SE,142,10.0,16.0,55,0.00,,,0.00,72,Wunderground v.1.15,2013-06-16 00:51:00,
2013-06-15 19:58:00,83.1,65.8,29.89,South,189,9.0,10.0,56,0.00,,,0.00,35,Wunderground v.1.15,2013-06-16 00:58:00,
2013-06-15 20:04:00,82.7,65.9,29.89,SSE,165,9.0,12.0,57,0.00,,,0.00,32,Wunderground v.1.15,2013-06-16 01:04:00,
2013-06-15 20:10:00,82.5,65.7,29.88,SSE,150,10.0,12.0,57,0.00,,,0.00,28,Wunderground v.1.15,2013-06-16 01:10:00,
2013-06-15 20:16:00,82.3,66.0,29.89,SSE,164,10.0,11.0,58,0.00,,,0.00,25,Wunderground v.1.15,2013-06-16 01:16:00,
2013-06-15 20:21:00,82.1,65.9,29.89,South,181,9.0,11.0,58,0.00,,,0.00,21,Wunderground v.1.15,2013-06-16 01:21:00,
2013-06-15 20:27:00,81.8,65.6,29.88,SSE,168,9.0,12.0,58,0.00,,,0.00,16,Wunderground v.1.15,2013-06-16 01:27:00,
2013-06-15 20:33:00,81.4,65.7,29.88,SSE,165,8.0,8.0,59,0.00,,,0.00,9,Wunderground v.1.15,2013-06-16 01:33:00,
2013-06-15 20:39:00,81.0,65.8,29.89,SSE,164,8.0,11.0,60,0.00,,,0.00,5,Wunderground v.1.15,2013-06-16 01:39:00,
2013-06-15 20:46:00,80.7,66.0,29.89,SE,145,9.0,9.0,61,0.00,,,0.00,0,Wunderground v.1.15,2013-06-16 01:46:00,
2013-06-15 20:51:00,80.4,66.2,29.90,SSE,155,7.0,12.0,62,0.00,,,0.00,0,Wunderground v.1.15,2013-06-16 01:51:00,
2013-06-15 20:57:00,80.0,66.3,29.90,South,169,8.0,9.0,63,0.00,,,0.00,0,Wunderground v.1.15,2013-06-16 01:57:00,
2013-06-15 21:03:00,79.8,66.5,29.90,South,172,8.0,8.0,64,0.00,,,0.00,0,Wunderground v.1.15,2013-06-16 02:03:00,
2013-06-15 21:09:00,79.4,66.6,29.91,SSE,168,7.0,8.0,65,0.00,,,0.00,0,Wunderground v.1.15,2013-06-16 02:09:00,
2013-06-15 21:15:00,79.2,66.9,29.90,SSE,163,7.0,8.0,66,0.00,,,0.00,0,Wunderground v.1.15,2013-06-16 02:15:00,
2013-06-15 21:21:00,79.0,66.7,29.90,SSE,150,8.0,13.0,66,0.00,,,0.00,0,Wunderground v.1.15,2013-06-16 02:21:00,
2013-06-15 21:27:00,78.7,66.8,29.90,SSE,164,9.0,10.0,67,0.00,,,0.00,0,Wunderground v.1.15,2013-06-16 02:27:00,
2013-06-15 21:33:00,78.4,67.0,29.91,SSE,154,9.0,12.0,68,0.00,,,0.00,0,Wunderground v.1.15,2013-06-16 02:33:00,
2013-06-15 21:39:00,78.2,67.2,29.91,SSE,162,9.0,18.0,69,0.00,,,0.00,0,Wunderground v.1.15,2013-06-16 02:39:00,
2013-06-15 21:45:00,78.0,67.4,29.91,South,172,9.0,11.0,70,0.00,,,0.00,0,Wunderground v.1.15,2013-06-16 02:45:00,
2013-06-15 21:51:00,77.9,67.3,29.92,SSE,155,9.0,13.0,70,0.00,,,0.00,0,Wunderground v.1.15,2013-06-16 02:51:00,
2013-06-15 21:57:00,77.7,67.5,29.92,SE,133,10.0,14.0,71,0.00,,,0.00,0,Wunderground v.1.15,2013-06-16 02:57:00,
2013-06-15 22:03:00,77.6,67.9,29.93,SSE,168,9.0,9.0,72,0.00,,,0.00,0,Wunderground v.1.15,2013-06-16 03:03:00,
2013-06-15 22:08:00,77.5,68.2,29.93,South,170,10.0,15.0,73,0.00,,,0.00,0,Wunderground v.1.15,2013-06-16 03:08:00,
2013-06-15 22:14:00,77.4,68.5,29.93,SSE,156,11.0,11.0,74,0.00,,,0.00,0,Wunderground v.1.15,2013-06-16 03:14:00,
2013-06-15 22:20:00,77.2,68.3,29.93,SE,143,11.0,11.0,74,0.00,,,0.00,0,Wunderground v.1.15,2013-06-16 03:20:00,
2013-06-15 22:26:00,77.0,68.5,29.94,SSE,147,11.0,13.0,75,0.00,,,0.00,0,Wunderground v.1.15,2013-06-16 03:26:00,
2013-06-15 22:32:00,76.9,68.8,29.94,SSE,153,11.0,17.0,76,0.00,,,0.00,0,Wunderground v.1.15,2013-06-16 03:32:00,
2013-06-15 22:38:00,76.7,68.9,29.94,SSE,160,11.0,12.0,77,0.00,,,0.00,0,Wunderground v.1.15,2013-06-16 03:38:00,
2013-06-15 22:44:00,76.6,68.8,29.94,SSE,166,10.0,10.0,77,0.00,,,0.00,0,Wunderground v.1.15,2013-06-16 03:44:00,
2013-06-15 22:50:00,76.4,68.7,29.94,SSE,161,9.0,14.0,77,0.00,,,0.00,0,Wunderground v.1.15,2013-06-16 03:50:00,
2013-06-15 22:56:00,76.2,68.8,29.95,SSE,155,9.0,15.0,78,0.00,,,0.00,0,Wunderground v.1.15,2013-06-16 03:56:00,
2013-06-15 23:02:00,76.1,68.7,29.95,SSE,167,9.0,15.0,78,0.00,,,0.00,0,Wunderground v.1.15,2013-06-16 04:02:00,
2013-06-15 23:04:00,76.0,68.6,29.95,SSE,156,9.0,10.0,78,0.00,,,0.00,0,Wunderground v.1.15,2013-06-16 04:04:00,
2013-06-15 23:06:00,76.0,68.6,29.95,SSE,163,8.0,10.0,78,0.00,,,0.00,0,Wunderground v.1.15,2013-06-16 04:06:00,
2013-06-15 23:12:00,75.8,68.8,29.94,SSE,156,8.0,10.0,79,0.00,,,0.00,0,Wunderground v.1.15,2013-06-16 04:12:00,
2013-06-15 23:14:00,75.7,68.7,29.94,SSE,147,8.0,8.0,79,0.00,,,0.00,0,Wunderground v.1.15,2013-06-16 04:14:00,
2013-06-15 23:18:00,75.6,68.6,29.95,SSE,160,9.0,11.0,79,0.00,,,0.00,0,Wunderground v.1.15,2013-06-16 04:18:00,
2013-06-15 23:24:00,75.5,68.9,29.95,SSE,166,8.0,9.0,80,0.00,,,0.00,0,Wunderground v.1.15,2013-06-16 04:24:00,
2013-06-15 23:30:00,75.3,68.7,29.95,SE,129,8.0,10.0,80,0.00,,,0.00,0,Wunderground v.1.15,2013-06-16 04:30:00,
2013-06-15 23:36:00,75.1,68.9,29.94,SSE,168,9.0,13.0,81,0.00,,,0.00,0,Wunderground v.1.15,2013-06-16 04:36:00,
2013-06-15 23:42:00,75.0,68.8,29.94,SSE,150,10.0,13.0,81,0.00,,,0.00,0,Wunderground v.1.15,2013-06-16 04:42:00,
2013-06-15 23:50:00,74.7,68.8,29.94,SSE,152,9.0,10.0,82,0.00,,,0.00,0,Wunderground v.1.15,2013-06-16 04:50:00,
2013-06-15 23:56:00,74.5,68.6,29.94,South,182,8.0,9.0,82,0.00,,,0.00,0,Wunderground v.1.15,2013-06-16 04:56:00,